Location: Aalen
(48.8330°N, 10.1000°E)
Time: 18:33:37
(UTC+02:00)

S-56A Canister/Altair - Pass Details

Date: 09 August 2021
Orbit: 632 x 2500 km, 38.9° (Epoch: 19 September)

Event Time Altitude Azimuth Distance (km) Brightness Sun altitude
Rises 18:54:58 0° 277° (W) 5,723 13.8 16.6°
Reaches altitude 10° 18:58:51 10° 270° (W) 4,893 14.3 16.0°
Maximum altitude 19:11:24 38° 211° (SSW) 3,393 11.2 13.9°
Drops below altitude 10° 19:24:10 10° 150° (SSE) 4,950 11.3 11.9°
Sets 19:28:09 0° 143° (SE) 5,793 11.6 11.2°
